COSMOS 2251 DEB, 47059

Orbit data source: Space-Track

COSMOS 2251 DEB, 47059 is space debris in LEO originally from a launch on Wed, 16 Jun 1993 UTC launched from the Plesetsk Missile And Space Complex (PKMTR). The debris from Iridium 33, an American commercial communications satellite, has been tracked extensively since its accidental collision with the defunct Russian satellite Cosmos 2251 in 2009. This event, occurring at high speed in low Earth orbit (LEO), generated thousands of pieces of space debris, significantly increasing the risk of further collisions. The Iridium 33 debris cloud has impacted space traffic management and orbital debris mitigation strategies, making it a subject of ongoing study in space situational awareness.

Not visible in the next 10 days
Identifier
47059, 1993-036BXP
Orbit
LEO
Country
Flag of CISCIS
Related business
Manufacturer
Unknown
Mission
Spacecraft
Bus & Motor
Unknown
Mass
Unknown
Launch date (UTC)
1993-06-16 (33 years ago)
Launch vehicle
Unknown
Launch site
Plesetsk Missile And Space Complex (PKMTR)
Object type
Payload
Rocket body
Debris
Shape & HBR
Unknown shape, 0.1 m
Radar Cross Section
Small (<0.1 m²)

Expand to show TLE details & history
Last TLE update: 3 weeks ago

TLE from 3 weeks ago
0 COSMOS 2251 DEB
1 47059U 93036BXP 26189.61862769  .00669508  00000-0  49101-2 0  9998
2 47059  73.9539 149.6107 0025031 220.9896 138.9447 15.70772385114892
Epoch: 2026-07-08T14:50Z
TLE epoch observation values (Epoch: 2026-07-08T14:50:49.432Z)
Latitude
-0.00002°
Longitude
0.33241°
Altitude
372.188 km
Speed
7.679 km/s
True Right ascension
09h 58m 26s
True Declination
0° 00' 00"
Sunlit
Object was in daylight at epoch
Visualization orbit readout
Latitude
Unknown
Longitude
Unknown
Altitude
Unknown
Speed
Unknown
Apparent Right ascension
Unknown
Apparent Declination
Unknown
Sunlit
N/A
Visualization observer readout
Local Sidereal Time
05:17:11
Azimuth
Unknown
Elevation
Unknown
Doppler factor
Unknown
Orbital elements
Apogee altitude
371.025 km
Perigee altitude
337.321 km
Semi-major axis
6,732.31 km
Eccentricity
0.0025
Inclination
73.9539°
RAAN
149.6107°
Arg. of periapsis
220.9896°
True anomaly
139.13265°
Mean anomaly
138.9447°
Eccentric anomaly
139.03872°
Mean motion
3.92914 °/min
Orbital period
91.62 mins
BSTAR
0.0049101
Loading maneuver chart data...
Computing Atmospheric mass density...
Loading historical data...
Loading historical data...
Loading historical data...
Loading historical data...
Loading historical data...
Loading historical data...
Loading historical data...

Documentation

Showing up to 5 results
|